When you browse on this site, cookies collect data to enhance your experience and personalize the content and advertising you see.
Visit our Privacy Policy to learn more. By continuing to use the site, you agree to this use of cookies and data.
  • In Portugal
  • List of Countries
  • For 7 days
  • Water Temperature
  • Satellite Maps
  • Weather Map
  • Weather Widgets
  • user-avatar
    Login

    Hourly Weather Dolinovka

    Today, 21 July, Sunday

    Time Temperature Precipitation Wind Pressure Humidity
    00:00 +17°C° 0 mm 3 mps 753 mmHg 88%
    01:00 +16°C° 0 mm 2 mps 753 mmHg 89%
    02:00 +16°C° 0 mm 2 mps 753 mmHg 90%
    03:00 +16°C° 0 mm 2 mps 753 mmHg 91%
    04:00 +17°C° 0 mm 2 mps 753 mmHg 88%
    05:00 +17°C° 0 mm 3 mps 753 mmHg 86%
    06:00 +18°C° 0 mm 3 mps 753 mmHg 84%
    07:00 +19°C° 0 mm 4 mps 753 mmHg 80%
    08:00 +21°C° 0 mm 4 mps 753 mmHg 76%
    09:00 +22°C° 0 mm 4 mps 753 mmHg 70%
    10:00 +23°C° 0.3 mm 4 mps 753 mmHg 70%
    11:00 +23°C° 0.3 mm 5 mps 753 mmHg 69%
    12:00 +25°C° 0.3 mm 5 mps 753 mmHg 68%
    13:00 +24°C° 0.6 mm 6 mps 753 mmHg 68%
    14:00 +24°C° 0.6 mm 6 mps 752 mmHg 69%
    15:00 +24°C° 0.6 mm 6 mps 752 mmHg 69%
    16:00 +23°C° 0.2 mm 5 mps 752 mmHg 73%
    17:00 +23°C° 0.2 mm 4 mps 752 mmHg 77%
    18:00 +22°C° 0.2 mm 3 mps 752 mmHg 80%
    19:00 +21°C° 0 mm 3 mps 752 mmHg 84%
    20:00 +19°C° 0 mm 3 mps 752 mmHg 88%
    21:00 +18°C° 0 mm 3 mps 752 mmHg 92%
    22:00 +17°C° 0 mm 3 mps 752 mmHg 93%
    23:00 +17°C° 0 mm 3 mps 752 mmHg 94%

    Tomorrow, 22 July, Monday

    Time Temperature Precipitation Wind Pressure Humidity
    00:00 +16°C° 0 mm 3 mps 752 mmHg 96%
    01:00 +16°C° 0 mm 3 mps 752 mmHg 96%
    02:00 +16°C° 0 mm 3 mps 752 mmHg 96%
    03:00 +16°C° 0 mm 3 mps 752 mmHg 96%
    04:00 +16°C° 0 mm 3 mps 752 mmHg 94%
    05:00 +17°C° 0 mm 3 mps 752 mmHg 92%
    06:00 +18°C° 0 mm 4 mps 752 mmHg 90%
    07:00 +19°C° 0 mm 4 mps 751 mmHg 84%
    08:00 +20°C° 0 mm 4 mps 751 mmHg 78%
    09:00 +22°C° 0 mm 4 mps 751 mmHg 73%
    10:00 +22°C° 0.2 mm 5 mps 751 mmHg 69%
    11:00 +23°C° 0.2 mm 5 mps 751 mmHg 66%
    12:00 +25°C° 0.2 mm 5 mps 751 mmHg 62%
    13:00 +23°C° 0.1 mm 5 mps 750 mmHg 64%
    14:00 +23°C° 0.1 mm 5 mps 750 mmHg 66%
    15:00 +22°C° 0.1 mm 5 mps 750 mmHg 68%
    16:00 +22°C° 0.1 mm 5 mps 750 mmHg 71%
    17:00 +21°C° 0.1 mm 4 mps 750 mmHg 74%
    18:00 +20°C° 0.1 mm 4 mps 750 mmHg 78%
    19:00 +19°C° 0 mm 4 mps 750 mmHg 82%
    20:00 +18°C° 0 mm 3 mps 750 mmHg 87%
    21:00 +17°C° 0 mm 3 mps 750 mmHg 92%
    22:00 +16°C° 0 mm 3 mps 750 mmHg 93%
    23:00 +16°C° 0 mm 3 mps 750 mmHg 94%

    Day after tomorrow, 23 July, Tuesday

    Time Temperature Precipitation Wind Pressure Humidity
    00:00 +14°C° 0 mm 3 mps 750 mmHg 96%
    01:00 +14°C° 0 mm 3 mps 750 mmHg 96%
    02:00 +14°C° 0 mm 3 mps 750 mmHg 96%
    03:00 +13°C° 0 mm 3 mps 751 mmHg 96%
    04:00 +14°C° 0 mm 3 mps 751 mmHg 94%
    05:00 +16°C° 0 mm 3 mps 751 mmHg 91%
    06:00 +17°C° 0 mm 4 mps 751 mmHg 89%
    07:00 +18°C° 0 mm 4 mps 751 mmHg 84%
    08:00 +19°C° 0 mm 4 mps 751 mmHg 78%
    09:00 +21°C° 0 mm 4 mps 751 mmHg 73%
    10:00 +21°C° 0.1 mm 4 mps 751 mmHg 71%
    11:00 +22°C° 0.1 mm 4 mps 751 mmHg 69%
    12:00 +23°C° 0.1 mm 4 mps 752 mmHg 68%
    13:00 +23°C° 0.1 mm 4 mps 752 mmHg 67%
    14:00 +23°C° 0.1 mm 4 mps 751 mmHg 66%
    15:00 +23°C° 0.1 mm 4 mps 751 mmHg 65%
    16:00 +24°C° 0.1 mm 3 mps 752 mmHg 69%
    17:00 +24°C° 0.1 mm 3 mps 752 mmHg 73%
    18:00 +23°C° 0.1 mm 2 mps 752 mmHg 77%
    19:00 +21°C° 0 mm 2 mps 752 mmHg 81%
    20:00 +19°C° 0 mm 2 mps 752 mmHg 86%
    21:00 +18°C° 0 mm 2 mps 752 mmHg 90%
    22:00 +17°C° 0 mm 2 mps 752 mmHg 91%
    23:00 +17°C° 0 mm 2 mps 752 mmHg 92%

    24 July, Wednesday

    Time Temperature Precipitation Wind Pressure Humidity
    00:00 +17°C° 0 mm 2 mps 753 mmHg 93%
    01:00 +16°C° 0 mm 1 mps 753 mmHg 94%
    02:00 +16°C° 0 mm 1 mps 753 mmHg 94%
    03:00 +16°C° 0 mm 1 mps 753 mmHg 95%
    04:00 +18°C° 0 mm 1 mps 753 mmHg 92%
    05:00 +19°C° 0 mm 1 mps 753 mmHg 90%
    06:00 +19°C° 0 mm 1 mps 753 mmHg 88%
    07:00 +21°C° 0 mm 1 mps 753 mmHg 82%
    08:00 +22°C° 0 mm 1 mps 753 mmHg 77%
    09:00 +24°C° 0 mm 1 mps 754 mmHg 71%
    10:00 +25°C° 0 mm 1 mps 754 mmHg 67%
    11:00 +25°C° 0 mm 1 mps 754 mmHg 63%
    12:00 +26°C° 0 mm 1 mps 754 mmHg 60%
    13:00 +26°C° 0.1 mm 2 mps 754 mmHg 59%
    14:00 +27°C° 0.1 mm 2 mps 754 mmHg 59%
    15:00 +27°C° 0.1 mm 2 mps 754 mmHg 59%
    16:00 +26°C° 0.1 mm 2 mps 754 mmHg 64%
    17:00 +26°C° 0.1 mm 2 mps 754 mmHg 69%
    18:00 +25°C° 0.1 mm 2 mps 754 mmHg 74%
    19:00 +23°C° 0 mm 1 mps 754 mmHg 79%
    20:00 +22°C° 0 mm 1 mps 754 mmHg 83%
    21:00 +20°C° 0 mm 1 mps 754 mmHg 88%
    22:00 +20°C° 0 mm 1 mps 754 mmHg 89%
    23:00 +19°C° 0 mm 1 mps 754 mmHg 89%

    25 July, Thursday

    Time Temperature Precipitation Wind Pressure Humidity
    00:00 +17°C° 0 mm 0 mps 754 mmHg 90%
    01:00 +17°C° 0 mm 0 mps 754 mmHg 90%
    02:00 +16°C° 0 mm 0 mps 754 mmHg 90%
    03:00 +16°C° 0 mm 0 mps 754 mmHg 91%
    04:00 +17°C° 0 mm 0 mps 754 mmHg 89%
    05:00 +18°C° 0 mm 0 mps 755 mmHg 87%
    06:00 +21°C° 0 mm 1 mps 755 mmHg 85%
    07:00 +22°C° 0 mm 1 mps 755 mmHg 79%
    08:00 +24°C° 0 mm 1 mps 755 mmHg 74%
    09:00 +25°C° 0 mm 1 mps 755 mmHg 69%
    10:00 +26°C° 0 mm 1 mps 755 mmHg 64%
    11:00 +27°C° 0 mm 1 mps 755 mmHg 59%
    12:00 +28°C° 0 mm 1 mps 754 mmHg 54%
    13:00 +27°C° 0 mm 0 mps 754 mmHg 52%
    14:00 +27°C° 0 mm 0 mps 754 mmHg 51%
    15:00 +27°C° 0 mm 0 mps 754 mmHg 49%
    16:00 +26°C° 0 mm 0 mps 753 mmHg 54%
    17:00 +26°C° 0 mm 0 mps 753 mmHg 58%
    18:00 +26°C° 0 mm 0 mps 753 mmHg 62%
    19:00 +24°C° 0 mm 0 mps 753 mmHg 65%
    20:00 +22°C° 0 mm 0 mps 753 mmHg 69%
    21:00 +22°C° 0 mm 1 mps 753 mmHg 72%
    22:00 +22°C° 0 mm 1 mps 753 mmHg 74%
    23:00 +21°C° 0 mm 1 mps 753 mmHg 77%

    26 July, Friday

    Time Temperature Precipitation Wind Pressure Humidity
    00:00 +21°C° 0 mm 1 mps 753 mmHg 79%
    01:00 +20°C° 0 mm 1 mps 752 mmHg 81%
    02:00 +20°C° 0 mm 1 mps 752 mmHg 83%
    03:00 +20°C° 0 mm 1 mps 752 mmHg 86%
    04:00 +20°C° 0 mm 1 mps 752 mmHg 85%
    05:00 +21°C° 0 mm 1 mps 752 mmHg 84%
    06:00 +22°C° 0 mm 1 mps 752 mmHg 83%
    07:00 +23°C° 0 mm 2 mps 752 mmHg 79%
    08:00 +24°C° 0 mm 2 mps 751 mmHg 74%
    09:00 +25°C° 0 mm 2 mps 751 mmHg 70%
    10:00 +26°C° 0.1 mm 3 mps 751 mmHg 68%
    11:00 +27°C° 0.1 mm 3 mps 751 mmHg 65%
    12:00 +27°C° 0.1 mm 3 mps 751 mmHg 63%
    13:00 +27°C° 0.2 mm 3 mps 750 mmHg 63%
    14:00 +27°C° 0.2 mm 4 mps 750 mmHg 63%
    15:00 +27°C° 0.2 mm 4 mps 750 mmHg 63%
    16:00 +26°C° 0 mm 3 mps 749 mmHg 66%
    17:00 +26°C° 0 mm 3 mps 749 mmHg 69%
    18:00 +25°C° 0 mm 2 mps 749 mmHg 73%
    19:00 +23°C° 0 mm 2 mps 749 mmHg 76%
    20:00 +21°C° 0 mm 2 mps 749 mmHg 79%
    21:00 +19°C° 0 mm 2 mps 749 mmHg 83%
    22:00 +18°C° 0 mm 2 mps 748 mmHg 85%
    23:00 +18°C° 0 mm 2 mps 748 mmHg 88%
    Show more